C/2022 F1 ( ATLAS )

Japanese version
Home page
Updated on October 22, 2022

---------------------------------------------------------------------

* Profile

Discovery Date March 30, 2022
Magnitude 18.6 mag
Discoverer Asteroid Terrestrial-Impact Last Alert System (ATLAS) search program

* Orbital Elements

Epoch 2022 Aug. 9.0 TT = JDT 2459800.5                                          
T 2022 Aug. 5.11692 TT                                  Rudenko                 
q   5.9745004            (2000.0)            P               Q                  
z  -0.0000148      Peri.  278.26297     +0.05662320     +0.98886710             
 +/-0.0000058      Node   350.65880     -0.16281413     -0.12683728             
e   1.0000885      Incl.   57.97158     -0.98503064     +0.07780847             
>From 111 observations 2022 Mar. 30-Oct. 9, mean residual 0".5.                  

* Magnitudes Graph

        m1 = 7.0 + 5 log d + 10.0 log r

---------------------------------------------------------------------

The orbital elements are published on M.P.E.C. 2022-T133.
The magnitudes graphs are made with Comet for Windows.

---------------------------------------------------------------------

Copyright(C) Seiichi Yoshida (comet@aerith.net). All rights reserved.